QZS-2 (QZSS/PRN 194)

Last updated on Sun Dec 14 2025 00:03:29 GMT+0000 (Coordinated Universal Time)

1 42738U 17028A 25346.57905626 -.00000190 00000+0 00000+0 0 9991 2 42738 39.7145 245.8860 0757587 269.4736 276.4370 1.00283091 5754
UTC large
Height (km)
Speed (km/s)
/
Latitude / Longitude
Inclination (degrees)
Orbital Period (minutes)
Azimuth
Elevation
Range (km)
Doppler Factor

Next 0 passes for location: London (51.5072 / 0.1276)

Sorry there are no passes over London.